EHI
0 0 0 0 0 0 0 0 0 0 0 0 0 0 0 0 0 0 0 0 0 0 0 0 0 0 0 0 0 0 0 0 0 0 0 0 0 0 0 0 0 0 0 0 0 0 0 0 0
0 0 0 0 0 0 0 0 0 0 0 0 0 0 0 0 0 0 0 0 0 0 0 0 0 0 0 0 0 0 0 0 0 0 0 0 0 0 0 0 0 0 0 0 0 0 0 0 0
0 0 0 0 0 0 0 0 0 0 0 0 0 0 0 0 0 0 0 0 0 0 0 0 0 0 0 0 0 0 0 0 0 0 0 0 0 0 0 0 0 0 0 0 0 0 0 0 0
0 0 0 0 0 0 0 0 0 0 0 0 0 0 0 0 0 0 0 0 0 0 0 0 0 0 0 0 0 0 0 0 0 0 0 0 0 0 0 0 0 0 0 0 0 0 0 0 0
0 0 0 0 0 0 0 0 0 0 0 0 0 0 0 0 0 0 0 0 0 0 0 0 1 2 1 0 0 0 0 0 0 0 0 0 0 0 0 0 0 0 0 0 0 0 0 0 0
0 0 0 0 0 0 0 0 0 0 0 0 0 0 0 0 0 0 0 0 0 0 0 0 4 8 7 2 0 0 0 0 0 0 0 0 0 0 0 0 0 0 0 0 0 0 0 0 0
0 0 0 0 0 0 0 0 0 0 0 0 0 0 0 0 0 0 0 0 0 0 0 1 7 13 12 4 0 0 0 0 0 0 0 0 0 0 0 0 0 0 0 0 0 0 0 0 0
0 0 0 0 0 0 0 0 0 0 0 0 0 0 0 0 0 0 0 0 0 0 0 1 6 10 8 3 0 0 0 0 0 0 0 0 0 0 0 0 0 0 0 0 0 0 0 0 0
0 0 0 0 0 0 0 0 0 0 0 0 0 0 0 0 0 0 0 0 0 0 0 1 2 3 3 2 1 0 0 0 0 0 0 0 0 0 0 0 0 0 0 0 0 0 0 0 0
0 0 0 0 0 0 0 0 0 0 0 0 0 0 0 0 0 0 0 0 0 0 0 0 0 0 1 2 1 0 0 0 0 0 0 0 0 0 0 0 0 0 0 0 0 0 0 0 0
0 0 0 0 0 0 0 0 0 0 0 0 0 0 0 0 0 0 0 0 0 0 0 0 0 0 0 1 1 0 0 0 0 0 0 0 0 0 0 0 0 0 0 0 0 0 0 0 0
0 0 0 0 0 0 0 0 0 0 0 0 0 0 0 0 0 0 0 0 0 0 0 0 0 0 0 0 0 0 0 0 0 0 0 0 0 0 0 0 0 0 0 0 0 0 0 0 0
0 0 0 0 0 0 0 0 0 0 0 0 0 0 0 0 0 0 0 0 0 0 0 0 0 0 0 0 0 0 0 0 0 0 0 0 0 0 0 0 0 0 0 0 0 0 0 0 0
0 0 0 0 0 0 0 0 0 0 0 0 0 0 0 0 0 0 0 0 0 0 0 0 0 0 0 0 0 0 0 0 0 0 0 0 0 0 0 0 0 0 0 0 0 0 0 0 0
0 0 0 0 0 0 0 0 0 0 0 0 0 0 0 0 0 0 0 0 0 0 0 0 0 0 0 0 0 0 0 0 0 0 0 0 0 0 0 0 0 0 0 0 0 0 0 0 0
0 0 0 0 0 0 0 0 0 0 0 0 0 0 0 0 0 0 0 0 0 0 0 0 0 0 0 0 0 0 0 0 0 0 0 0 0 0 0 0 0 0 0 0 0 0 0 0 0
0 0 0 0 0 0 0 0 0 0 0 0 0 0 0 0 0 0 0 0 0 0 0 0 0 0 0 0 0 0 0 0 0 0 0 0 0 0 0 0 0 0 0 0 0 0 0 0 0
0 0 0 0 0 0 0 0 0 0 0 0 0 0 0 0 0 0 0 0 0 0 0 0 0 0 0 0 0 0 0 0 0 0 0 0 0 0 0 0 0 0 0 0 0 0 0 0 0
0 0 0 0 0 0 0 0 0 0 0 0 0 0 0 0 0 0 0 0 0 0 0 0 0 0 0 0 0 0 0 0 0 0 0 0 0 0 0 0 0 0 0 0 0 0 0 0 0
0 0 0 0 0 0 0 0 0 0 0 0 0 0 0 0 0 0 0 0 0 0 0 0 0 0 0 0 0 0 0 0 0 0 0 0 0 0 0 0 0 0 0 0 0 0 0 0 0
0 0 0 0 0 0 0 0 0 0 0 0 0 0 0 0 0 0 0 0 0 0 0 0 0 0 0 0 0 0 0 0 0 0 0 0 0 0 0 0 0 0 0 0 0 0 0 0 0
0 0 0 0 0 0 0 0 0 0 0 0 0 0 0 0 0 0 0 0 0 0 0 0 0 0 0 0 0 0 0 0 0 0 0 0 0 0 0 0 0 0 0 0 0 0 0 0 0
0 0 0 0 0 0 0 0 0 0 0 0 0 0 0 0 0 0 0 0 0 0 0 0 0 0 0 0 0 0 0 0 0 0 0 0 0 0 0 0 0 0 0 0 0 0 0 0 0
0 0 0 0 0 0 0 0 0 0 0 0 0 0 0 0 0 0 0 0 0 0 0 0 0 0 0 0 0 0 0 0 0 0 0 0 0 0 0 0 0 0 0 0 0 0 0 0 0
0 0 0 0 0 0 0 0 0 0 0 0 0 0 0 0 0 0 0 0 0 0 0 0 0 0 0 0 0 0 0 0 0 0 0 0 0 0 0 0 0 0 0 0 0 0 0 0 0
0 0 0 0 0 0 0 0 0 0 0 0 0 0 0 0 0 0 0 0 0 0 0 0 0 0 0 0 0 0 0 0 0 0 0 0 0 0 0 0 0 0 0 0 0 0 0 0 0
0 0 0 0 0 0 0 0 0 0 0 0 0 0 0 0 0 0 0 0 0 0 0 0 0 0 0 0 0 0 0 0 0 0 0 0 0 0 0 0 0 0 0 0 0 0 0 0 0
0 0 0 0 0 0 0 0 0 0 0 0 0 0 0 0 0 0 0 0 0 0 0 0 0 0 0 0 0 0 0 0 0 0 0 0 0 0 0 0 0 0 0 0 0 0 0 0 0
0 0 0 0 0 0 0 0 0 0 0 0 0 0 0 0 0 0 0 0 0 0 0 0 0 0 0 0 0 0 0 0 0 0 0 0 0 0 0 0 0 0 0 0 0 0 0 0 0
0 0 0 0 0 0 0 0 0 0 0 0 0 0 0 0 0 0 0 0 0 0 0 0 0 0 0 0 0 0 0 0 0 0 0 0 0 0 0 0 0 0 0 0 0 0 0 0 0
Wind_Speed
4 4 3 5 6 4 3 5 3 3 3 3 2 3 6 4 3 1 2 0 1 3 7 11 15 15 14 13 13 11 10 9 8 7 6 7 7 7 7 7 6 6 6 7 7 7 7 6 6
2 2 5 6 5 1 6 5 4 5 2 1 2 4 3 1 1 3 4 4 2 5 6 7 14 14 14 13 13 12 11 10 9 8 6 6 7 7 7 7 6 6 7 7 7 7 7 7 6
3 5 5 5 3 4 4 4 4 5 3 0 1 2 2 0 4 4 5 6 3 5 5 7 13 13 13 13 13 12 11 9 9 9 7 6 5 5 6 7 6 7 7 7 8 7 7 7 7
4 6 6 4 3 6 6 5 2 5 4 1 3 2 2 2 4 5 9 4 3 5 5 6 13 13 13 13 13 12 11 10 9 9 8 7 7 6 5 6 6 7 7 8 8 8 8 7 6
5 5 4 1 5 6 5 5 2 2 3 2 3 3 1 5 5 6 8 4 3 4 3 4 11 13 13 13 13 12 11 10 9 9 8 8 8 7 5 5 5 6 7 8 9 10 10 9 8
5 5 3 3 6 7 7 4 1 2 3 2 4 5 1 4 6 7 7 6 2 3 3 3 10 11 12 12 13 13 12 11 10 10 9 9 9 8 7 6 6 7 8 8 9 10 11 11 10
5 4 3 3 4 6 5 3 2 1 1 2 2 5 2 2 3 4 4 6 6 4 3 3 4 6 9 11 12 12 12 12 11 10 9 8 8 8 8 7 6 7 8 9 9 10 11 11 11
5 4 1 3 3 5 4 3 1 2 2 0 2 5 5 3 1 0 3 6 6 5 3 0 3 4 4 5 9 10 10 10 10 8 7 6 5 5 6 4 5 8 9 9 9 11 11 10 12
4 4 2 4 4 4 3 3 1 2 3 1 1 4 4 1 1 1 4 5 5 5 4 4 2 3 4 4 5 7 8 8 8 7 6 4 1 1 3 5 7 9 10 10 9 11 11 10 10
4 3 7 5 4 3 3 3 3 2 2 3 4 4 1 1 2 4 4 4 4 5 5 4 4 3 3 3 3 3 3 3 4 3 4 3 2 3 4 5 7 9 10 11 11 10 9 8 4
5 7 5 5 5 4 4 5 3 4 7 9 10 8 5 3 3 5 3 2 2 2 4 5 5 3 2 2 2 2 1 2 3 4 3 2 2 2 3 2 3 4 6 5 6 5 3 4 3
4 6 6 5 3 4 5 4 4 7 12 7 7 6 6 6 6 6 5 3 1 2 4 5 5 5 2 1 1 1 1 1 2 3 3 2 2 2 2 2 3 3 3 3 4 3 4 4 4
4 5 4 6 8 7 6 7 6 9 8 1 4 7 8 8 6 4 5 4 3 2 3 4 5 5 5 4 3 2 1 1 2 2 2 3 3 3 3 2 3 4 3 3 4 3 4 4 5
3 4 7 8 7 4 5 6 4 11 3 3 5 8 8 8 7 5 5 5 4 3 3 3 4 5 5 4 3 3 2 1 1 2 3 3 3 3 2 2 3 3 3 3 3 3 3 2 2
2 5 9 5 3 3 1 6 7 7 0 6 8 8 7 8 7 7 7 6 6 4 3 4 4 5 5 4 3 2 2 2 1 1 2 2 3 3 3 2 2 2 2 2 2 2 2 1 2
3 4 5 7 5 3 1 8 10 5 3 9 9 8 8 7 8 7 7 6 5 5 4 4 4 5 5 4 2 2 2 2 1 1 2 1 1 1 2 2 2 1 0 1 2 2 2 2 3
5 3 4 8 4 3 2 10 12 6 5 10 10 9 8 8 7 7 6 5 5 5 5 4 4 4 3 3 3 2 2 2 1 1 2 2 3 3 2 2 2 0 1 1 2 2 2 2 2
3 3 4 7 6 4 5 11 16 13 9 11 9 7 8 9 10 7 6 5 4 4 5 5 4 4 3 3 3 3 3 3 2 2 2 2 3 4 3 3 4 2 1 2 3 3 2 2 2
2 4 7 8 5 4 8 13 19 20 11 10 9 7 8 10 7 5 6 5 4 4 5 4 4 3 3 3 2 2 2 2 2 3 4 4 4 3 3 2 3 3 3 3 3 2 2 1 1
2 4 6 7 4 4 8 11 14 11 8 6 6 8 9 8 5 7 7 6 5 4 5 5 5 4 3 2 2 1 0 1 1 2 3 5 5 4 3 3 2 2 3 4 3 2 2 1 1
3 4 5 7 8 6 6 8 8 6 6 6 5 5 7 8 9 8 8 7 5 5 6 6 5 5 3 3 2 2 2 2 2 3 2 3 3 3 3 3 2 2 2 2 2 2 3 2 2
5 3 5 6 5 6 4 7 7 7 11 8 10 11 11 11 8 6 6 7 7 7 6 7 6 5 4 3 3 3 2 1 2 1 2 2 2 2 2 3 2 1 1 2 2 2 2 2 1
5 5 4 3 2 4 2 3 10 6 5 7 10 13 13 11 7 6 7 7 7 7 6 6 6 5 4 3 3 3 2 2 1 1 2 2 1 1 1 2 2 1 1 1 2 2 2 2 3
4 5 3 4 3 3 3 4 8 4 3 6 8 12 14 13 7 5 6 6 6 6 5 5 5 4 4 3 3 3 3 2 2 2 2 2 2 2 3 3 2 1 1 2 2 3 4 3 3
8 6 7 8 5 6 3 3 10 6 3 3 7 12 15 14 9 6 7 8 7 7 7 5 5 5 3 3 2 2 2 2 2 2 1 1 1 2 4 3 3 2 3 3 3 3 4 4 5
3 2 2 4 6 7 5 7 8 4 4 5 7 9 12 14 12 10 9 7 7 8 8 7 7 6 4 3 2 2 2 1 1 1 1 2 1 1 3 4 3 3 3 3 3 3 4 4 5
1 0 1 1 5 6 8 8 11 5 12 15 18 20 21 20 18 14 10 8 8 8 8 8 8 6 5 5 6 6 5 4 4 4 3 3 2 3 4 4 3 3 3 3 2 2 3 3 5
2 3 4 1 4 7 10 7 5 8 11 16 19 18 17 17 17 15 11 9 9 8 7 7 8 7 7 8 8 7 6 4 3 3 3 3 3 3 3 4 4 4 4 3 2 2 3 4 5
3 1 1 1 2 3 9 10 1 5 7 9 9 10 12 16 17 16 14 12 12 10 9 7 6 6 7 8 9 8 5 3 3 3 3 3 3 3 4 4 5 5 5 4 3 4 4 5 5
1 1 3 1 6 4 7 14 3 3 5 7 11 14 14 15 17 18 18 17 15 13 10 6 5 6 7 7 9 8 4 3 3 3 2 2 3 3 4 5 5 5 5 5 5 5 4 4 5
Wind_Direction
67 87 74 57 51 44 271 255 239 264 237 221 198 155 147 152 167 193 304 347 160 147 172 186 184 187 189 191 195 198 209 212 207 205 222 223 229 225 228 233 235 228 219 210 194 181 177 176 173
115 100 56 59 77 355 270 254 249 242 256 138 116 116 119 139 292 294 328 316 192 158 170 182 187 191 193 195 197 203 207 209 210 204 219 227 230 220 225 236 240 237 232 223 210 195 183 180 176
94 56 79 73 114 209 250 249 249 284 307 277 66 53 122 10 324 315 323 307 167 162 176 189 191 196 199 201 203 206 206 214 212 204 217 232 240 229 227 234 242 240 237 231 219 207 193 184 180
76 46 54 77 234 231 234 259 276 299 317 78 119 89 10 21 332 313 318 306 185 184 187 201 197 201 205 208 209 209 207 219 218 211 220 232 244 246 248 250 252 244 241 236 224 210 196 189 185
58 73 61 331 258 259 257 267 247 283 311 348 126 134 349 343 334 341 339 338 233 218 204 217 211 207 208 212 214 214 213 223 229 224 226 235 242 243 253 276 274 253 248 243 229 211 198 193 191
57 67 93 253 267 285 287 275 253 270 312 344 128 145 191 341 1 340 350 12 344 208 195 216 225 215 213 217 219 220 217 222 231 235 232 238 245 247 252 265 281 269 254 247 236 220 208 199 199
103 104 179 243 285 291 281 286 226 240 295 342 159 157 230 314 346 336 9 38 47 79 146 185 213 218 218 219 222 226 225 222 229 237 240 241 251 259 261 266 277 288 262 250 244 235 228 213 206
121 106 215 251 252 271 281 312 232 179 199 279 142 178 220 229 295 346 47 48 50 49 50 157 198 199 207 218 222 223 227 225 226 235 252 259 263 289 300 310 305 305 289 257 246 243 241 229 217
91 80 241 234 223 265 290 323 315 135 137 152 215 215 215 218 126 78 35 23 24 24 21 8 317 237 209 206 218 224 224 226 224 228 237 251 264 288 301 295 295 295 299 290 265 250 246 241 227
98 164 233 228 224 259 290 276 265 216 223 234 249 241 193 100 111 96 75 50 26 10 358 2 346 301 240 216 199 206 209 218 214 202 216 219 219 232 242 262 278 286 293 297 289 268 253 247 227
169 203 235 250 242 256 271 268 243 211 242 231 224 218 183 157 139 131 123 93 46 3 5 355 351 339 258 217 177 185 196 201 205 207 211 215 226 242 253 259 276 276 277 277 278 268 221 198 193
195 239 232 258 257 268 255 259 254 217 230 238 222 184 177 178 178 169 159 149 121 54 21 8 7 19 33 101 131 175 198 204 211 215 215 211 227 240 247 247 253 252 244 247 243 218 201 195 185
226 266 259 257 269 253 252 247 255 256 252 260 169 171 186 190 193 190 179 170 150 99 41 19 25 34 41 50 41 38 338 262 251 245 233 214 219 237 246 257 257 250 237 231 232 212 203 197 192
253 267 283 280 271 263 246 268 257 266 256 198 198 202 205 201 193 184 190 184 163 120 71 33 45 45 54 52 44 31 17 352 311 271 251 223 212 217 222 246 260 260 245 231 222 212 206 199 195
303 316 314 300 315 311 314 301 257 280 233 234 234 229 222 220 208 199 196 186 171 141 91 55 62 50 54 52 47 46 31 28 15 323 294 237 214 224 224 231 251 261 264 251 224 193 176 199 212
32 17 323 308 336 337 349 279 278 314 248 256 249 243 238 234 225 219 205 188 168 136 109 70 67 60 50 39 26 27 31 40 36 9 360 351 271 229 227 247 253 251 239 166 171 173 187 206 215
26 356 299 302 317 349 314 270 277 293 259 261 255 243 239 243 240 229 216 196 160 138 125 100 74 62 47 36 29 24 23 26 25 24 17 2 6 15 13 343 324 220 138 121 125 126 149 193 223
312 295 284 282 295 344 292 272 285 285 255 261 267 259 243 237 234 219 210 188 155 141 124 109 82 60 51 40 33 31 33 24 25 22 16 23 34 34 34 24 11 18 64 82 89 105 127 172 198
237 255 274 270 292 321 273 277 287 291 298 282 277 269 261 255 246 218 196 172 158 143 116 101 87 63 66 58 44 29 11 356 13 22 31 31 32 36 45 41 32 35 52 60 76 103 105 108 150
258 277 284 293 315 291 284 285 281 288 285 282 305 314 295 282 253 219 194 182 182 155 136 125 119 114 112 126 138 137 104 325 331 346 32 33 29 27 35 41 48 63 74 61 55 62 86 55 45
294 249 273 289 319 325 331 316 312 316 334 358 14 339 322 298 255 224 197 191 187 180 170 159 154 144 136 132 121 94 71 33 7 354 1 8 19 26 30 33 52 89 111 109 94 88 100 71 16
288 270 261 282 331 306 11 302 290 309 326 346 351 345 340 327 285 238 206 191 196 199 185 168 164 160 155 138 126 131 139 172 229 274 305 327 16 33 30 23 32 74 113 126 135 129 132 121 74
270 289 275 278 262 299 295 229 286 315 329 343 335 333 332 329 299 250 221 210 211 205 192 180 172 171 161 151 146 144 164 207 243 273 298 314 336 24 56 31 22 40 120 168 181 169 174 172 167
313 328 353 53 66 307 246 188 283 272 274 312 321 327 328 328 311 250 228 225 225 218 210 193 185 186 165 154 159 173 187 214 240 258 276 302 332 357 21 10 359 333 273 241 231 219 205 199 200
35 38 358 348 350 261 311 243 252 264 289 313 322 322 324 321 308 269 236 229 226 219 217 210 206 206 185 176 177 180 189 206 240 259 258 328 9 5 0 1 330 301 279 271 256 246 244 221 210
349 116 143 280 278 293 310 254 260 284 338 7 354 338 338 340 327 294 262 243 235 228 221 214 216 211 182 168 131 92 97 116 115 90 99 73 45 7 0 352 327 305 286 267 243 235 244 231 229
356 162 142 205 294 290 278 286 304 338 13 11 6 1 354 347 337 313 288 266 248 240 233 221 219 207 167 141 115 92 83 85 89 83 79 69 42 30 18 356 336 319 308 297 273 244 253 238 231
67 111 71 70 291 290 290 278 266 352 359 7 2 347 335 331 332 327 311 293 280 263 249 231 217 192 157 138 127 114 100 95 100 94 77 61 32 8 346 331 319 314 313 317 309 276 266 257 251
29 30 144 176 207 247 290 281 150 33 23 352 323 315 323 328 329 326 319 308 292 275 253 227 194 157 136 125 116 106 94 90 83 73 53 32 10 350 328 309 302 302 302 307 302 284 272 260 263
30 33 91 357 289 239 262 281 66 60 339 333 326 323 323 325 327 326 320 312 300 281 254 204 158 132 116 112 103 90 82 86 82 69 43 18 2 347 324 311 304 300 298 295 284 280 282 275 272